[[{"header":{"parameterUnit":"m.s-1","parameterCategory":1,"la1":30.2991,"la2":30.254,"lo1":-89.0895,"lo2":-89.0444,"dy":0.0017,"dx":0.0017,"nx":28,"ny":28,"refTime":"2024-04-24T09:00:00:Z","depth":0,"parameterNumber":2,"parameterNumberName":"U-component_of_WINDS"},"data":[0,0,0,0,0,0,0,0,0,0,0,0,0,0,0,0,0,0,0,0,0,0,0,0,0,0,0,0,0,0,0,0,0,0,0,0,0,0,0,0,0,0,0,0,0,0,0,0,0,0,0,0,0,0,0,0,0,0,-0.5487,-0.5485,0,-0.5359,-0.5358,-0.5356,-0.5287,-0.5286,-0.5286,-0.5286,-0.5153,-0.515,-0.5146,0,0,0,0,0,0,0,0,0,0,0,0,0,-0.5668,-0.5665,-0.5487,-0.5485,-0.5484,-0.536,-0.5358,-0.5356,-0.5287,-0.5286,-0.5286,-0.5286,-0.5154,-0.515,-0.5146,0,0,0,0,0,0,0,0,0,0,0,0,0,-0.557,-0.5664,-0.5487,-0.5434,-0.5428,-0.536,-0.5358,-0.5356,-0.5287,-0.5286,-0.5286,-0.5286,-0.5155,-0.5151,-0.5146,-0.512,0,0,-0.513,-0.5128,0,0,0,0,0,0,0,0,-0.5575,-0.5563,-0.5443,-0.5438,-0.5431,-0.5339,-0.5373,-0.5276,-0.5287,-0.534,-0.5286,-0.5286,-0.5215,-0.5205,-0.5181,-0.5113,-0.5108,-0.513,-0.5127,-0.5124,-0.5123,0,0,0,0,0,0,0,-0.5582,-0.5568,-0.5436,-0.5442,-0.5434,-0.5416,-0.5402,-0.5354,-0.528,-0.5336,-0.533,-0.5316,-0.5211,-0.5187,-0.5178,-0.5106,-0.513,-0.5125,-0.5122,-0.512,-0.5009,-0.5009,0,0,0,0,0,0,-0.5598,-0.5574,-0.544,-0.5432,-0.5504,-0.5413,-0.5397,-0.5368,-0.5281,-0.5267,-0.5317,-0.5313,-0.5195,-0.5184,-0.5173,-0.5136,-0.5124,-0.512,-0.5117,-0.5009,-0.5009,-0.5009,0,0,0,0,0,0,-0.5602,-0.5586,-0.5445,-0.5502,-0.5483,-0.541,-0.5379,-0.5366,-0.5341,-0.5267,-0.5253,-0.5305,-0.5195,-0.518,-0.5133,-0.513,-0.5117,-0.5113,-0.5009,-0.5009,-0.5009,-0.5063,0,0,0,0,0,0,-0.5607,-0.5588,-0.5578,-0.5502,-0.548,-0.5409,-0.5378,-0.5364,-0.5333,-0.5328,-0.5252,-0.5239,-0.5193,-0.5141,-0.5128,-0.5123,-0.5109,-0.5009,-0.5009,-0.5009,-0.5061,-0.5064,-0.5068,0,0,0,0,0,-0.5614,-0.5598,-0.5578,-0.5562,-0.5466,-0.5409,-0.5396,-0.5344,-0.5333,-0.5322,-0.5274,-0.5242,-0.5133,-0.5137,-0.5122,-0.5115,-0.5009,-0.5009,-0.5009,-0.5059,-0.5064,-0.5068,0,0,0,0,0,0,-0.5674,-0.5587,-0.5564,-0.5523,-0.5474,-0.5397,-0.5381,-0.5351,-0.5304,-0.53,-0.5238,-0.5221,-0.518,-0.5143,-0.5149,-0.5085,-0.5068,-0.5065,-0.5111,-0.5114,-0.5118,-0.5127,-0.5105,0,0,0,0,0,-0.5683,-0.5645,-0.557,-0.5541,-0.5518,-0.5454,-0.5427,-0.5392,-0.5339,-0.5317,-0.5266,-0.5215,-0.5169,-0.514,-0.5094,-0.5056,-0.5038,-0.5044,-0.5047,-0.5051,-0.5048,-0.5025,-0.5026,-0.501,-0.501,-0.501,0,0,-0.57,-0.5648,-0.5627,-0.5552,-0.551,-0.5471,-0.5437,-0.5397,-0.5368,-0.5311,-0.5263,-0.5225,-0.5163,-0.5121,-0.5099,-0.5088,-0.5049,-0.5051,-0.5054,-0.505,-0.5025,-0.5027,-0.5028,-0.501,-0.501,-0.501,0,0,-0.5711,-0.5668,-0.5638,-0.5597,-0.5535,-0.5493,-0.5486,-0.5414,-0.5386,-0.5338,-0.5294,-0.5258,-0.5181,-0.5139,-0.5107,-0.5104,-0.5072,-0.509,-0.5108,-0.5086,-0.5087,-0.5088,-0.5085,-0.5085,-0.5089,-0.5089,-0.5089,0,-0.5739,-0.568,-0.5627,-0.559,-0.5557,-0.5506,-0.5475,-0.5438,-0.5363,-0.5342,-0.5331,-0.5233,-0.5188,-0.5135,-0.5134,-0.5111,-0.51,-0.5098,-0.5091,-0.5092,-0.5091,-0.5088,-0.5088,-0.5092,-0.5091,-0.5091,-0.5091,0,-0.5718,-0.5677,-0.5661,-0.5591,-0.5557,-0.5523,-0.5465,-0.5437,-0.5405,-0.5364,-0.5316,-0.526,-0.5202,-0.5187,-0.5155,-0.5129,-0.5124,-0.5104,-0.5084,-0.5096,-0.5092,-0.5091,-0.5095,-0.5094,-0.5094,-0.5093,0,0,-0.5761,-0.5663,-0.5658,-0.5625,-0.5553,-0.552,-0.5484,-0.5428,-0.5404,-0.5355,-0.5323,-0.5259,-0.524,-0.5204,-0.5167,-0.5148,-0.5148,-0.5129,-0.5127,-0.5134,-0.5115,-0.5129,-0.5129,-0.5127,-0.5127,-0.5126,-0.5119,0,-0.576,-0.5693,-0.5645,-0.5597,-0.5558,-0.5509,-0.5478,-0.5429,-0.5391,-0.5352,-0.5308,-0.5264,-0.5242,-0.5221,-0.52,-0.5152,-0.5143,-0.5152,-0.5095,-0.5094,-0.511,-0.5127,-0.5142,-0.5138,-0.5118,-0.5117,-0.5117,0,-0.575,-0.5703,-0.5651,-0.5582,-0.5564,-0.5537,-0.5481,-0.5445,-0.539,-0.5363,-0.5324,-0.5286,-0.5246,-0.5232,-0.5174,-0.5182,-0.5156,-0.513,-0.5128,-0.5119,-0.5105,-0.5117,-0.5136,-0.5135,-0.5114,-0.5114,-0.5115,0,-0.5785,-0.5709,-0.5667,-0.5641,-0.5561,-0.5543,-0.5508,-0.5453,-0.5422,-0.5374,-0.5353,-0.5301,-0.5272,-0.5232,-0.5181,-0.5176,-0.5128,-0.511,-0.5104,-0.5105,-0.5094,-0.5095,-0.5107,-0.5081,-0.5081,-0.5081,-0.5081,0,-0.5788,-0.5758,-0.5682,-0.5657,-0.5621,-0.5566,-0.5532,-0.5494,-0.5445,-0.5411,-0.5366,-0.5334,-0.527,-0.5231,-0.5191,-0.5149,-0.5136,-0.5112,-0.5102,-0.5115,-0.5118,-0.5096,-0.5094,-0.508,-0.508,-0.508,-0.508,0,-0.5821,-0.5769,-0.572,-0.5649,-0.563,-0.5607,-0.5545,-0.5518,-0.5478,-0.5435,-0.5422,-0.5358,-0.5309,-0.5255,-0.5188,-0.5162,-0.5122,-0.5107,-0.514,-0.5134,-0.513,-0.5131,-0.5127,-0.5123,-0.5101,-0.5101,-0.5101,0,-0.5825,-0.5801,-0.5727,-0.5701,-0.5668,-0.5627,-0.5595,-0.5541,-0.551,-0.5445,-0.5426,-0.5375,-0.533,-0.5255,-0.5202,-0.5151,-0.5134,-0.5136,-0.5126,-0.514,-0.5132,-0.5133,-0.513,-0.5138,-0.5139,-0.5139,-0.514,0,-0.5838,-0.5814,-0.5771,-0.5719,-0.5683,-0.564,-0.5594,-0.5575,-0.5512,-0.5479,-0.543,-0.5395,-0.5328,-0.5277,-0.5219,-0.5183,-0.515,-0.5144,-0.5139,-0.5152,-0.5172,-0.516,-0.5147,-0.5144,-0.5143,-0.5143,-0.5143,-0.5143,-0.5855,-0.5831,-0.5775,-0.5729,-0.5689,-0.5648,-0.5619,-0.5575,-0.5533,-0.5474,-0.5445,-0.5395,-0.534,-0.526,-0.5225,-0.5185,-0.5174,-0.5168,-0.5166,-0.5165,-0.5168,-0.518,-0.5175,-0.5174,-0.5174,-0.5174,-0.5174,0,-0.5865,-0.5827,-0.5785,-0.5723,-0.5686,-0.5661,-0.5609,-0.558,-0.5537,-0.5489,-0.5447,-0.5389,-0.534,-0.5284,-0.5231,-0.521,-0.5193,-0.5197,-0.5197,-0.5189,-0.5181,-0.519,-0.5211,-0.5211,-0.5211,-0.5211,-0.5211,-0.5211,-0.5865,-0.5823,-0.5792,-0.573,-0.5691,-0.5643,-0.5616,-0.5577,-0.5539,-0.5477,-0.5436,-0.54,-0.5349,-0.5292,-0.5245,-0.523,-0.5212,-0.522,-0.52,-0.5193,-0.519,-0.5187,-0.5195,-0.5217,-0.5217,-0.5211,-0.5211,-0.5211]},{"header":{"parameterUnit":"m.s-1","parameterCategory":1,"la1":30.2991,"la2":30.254,"lo1":-89.0895,"lo2":-89.0444,"dy":0.0017,"dx":0.0017,"nx":28,"ny":28,"refTime":"2024-04-24T09:00:00:Z","depth":0,"parameterNumber":3,"parameterNumberName":"V-component_of_WINDS"},"data":[0,0,0,0,0,0,0,0,0,0,0,0,0,0,0,0,0,0,0,0,0,0,0,0,0,0,0,0,0,0,0,0,0,0,0,0,0,0,0,0,0,0,0,0,0,0,0,0,0,0,0,0,0,0,0,0,0,0,2.8852,2.8852,0,2.888,2.8881,2.8881,2.8929,2.893,2.8931,2.8932,2.8957,2.8957,2.8957,0,0,0,0,0,0,0,0,0,0,0,0,0,2.8836,2.8836,2.8852,2.8852,2.8853,2.888,2.8881,2.8881,2.8929,2.893,2.8931,2.8932,2.8957,2.8957,2.8957,0,0,0,0,0,0,0,0,0,0,0,0,0,2.8852,2.8836,2.8852,2.888,2.8883,2.888,2.8881,2.8881,2.8929,2.893,2.8932,2.8933,2.8957,2.8957,2.8957,2.8928,0,0,2.8956,2.8956,0,0,0,0,0,0,0,0,2.8851,2.8852,2.8875,2.8878,2.8881,2.8903,2.8885,2.8897,2.8929,2.8911,2.8932,2.8934,2.8938,2.8939,2.8941,2.8929,2.893,2.8956,2.8956,2.8956,2.8956,0,0,0,0,0,0,0,2.885,2.8851,2.8863,2.8876,2.8879,2.889,2.8894,2.8887,2.8916,2.8913,2.8917,2.8919,2.894,2.8942,2.8942,2.893,2.8956,2.8956,2.8956,2.8956,2.8897,2.8895,0,0,0,0,0,0,2.8845,2.885,2.8862,2.8864,2.8869,2.889,2.8894,2.8894,2.8917,2.8921,2.8918,2.8922,2.8941,2.8943,2.8943,2.8912,2.8956,2.8956,2.8955,2.8898,2.8896,2.8895,0,0,0,0,0,0,2.8844,2.8845,2.8861,2.8858,2.8861,2.8888,2.8889,2.8894,2.8896,2.8921,2.8926,2.8915,2.8942,2.8944,2.8932,2.8913,2.8955,2.8955,2.89,2.8898,2.8896,2.8848,0,0,0,0,0,0,2.8844,2.8845,2.8835,2.8857,2.8861,2.885,2.8888,2.8894,2.8896,2.8901,2.8919,2.8923,2.8944,2.8932,2.8932,2.8914,2.8955,2.8902,2.8899,2.8896,2.8851,2.8844,2.8838,0,0,0,0,0,2.8843,2.8819,2.8834,2.8835,2.8849,2.8848,2.885,2.8875,2.8894,2.8884,2.89,2.8923,2.8915,2.893,2.893,2.8912,2.8903,2.89,2.8897,2.8854,2.8845,2.8838,0,0,0,0,0,0,2.8792,2.8822,2.8839,2.8822,2.8833,2.8857,2.8844,2.8865,2.8869,2.8873,2.8903,2.8907,2.8891,2.89,2.8916,2.8886,2.8913,2.8909,2.888,2.8873,2.8866,2.8864,2.8955,0,0,0,0,0,2.8779,2.8777,2.8803,2.8786,2.879,2.8816,2.8817,2.8836,2.8847,2.8851,2.8866,2.8875,2.8875,2.8874,2.8875,2.8853,2.8858,2.884,2.8834,2.8828,2.8825,2.8815,2.8807,2.8885,2.8885,2.8885,0,0,2.8751,2.8768,2.8764,2.8776,2.8786,2.8783,2.8819,2.8814,2.8812,2.885,2.884,2.8851,2.8864,2.8846,2.884,2.8854,2.8805,2.8824,2.882,2.882,2.8811,2.8803,2.8797,2.8882,2.8883,2.8883,0,0,2.87,2.8712,2.8699,2.8709,2.8725,2.8743,2.8739,2.8761,2.877,2.8761,2.879,2.8787,2.8786,2.8794,2.8798,2.8751,2.8772,2.875,2.8717,2.8707,2.8701,2.8695,2.8679,2.8673,2.8747,2.8747,2.8747,0,2.8663,2.8661,2.8689,2.8683,2.8687,2.8723,2.871,2.8718,2.8732,2.8734,2.875,2.8751,2.8761,2.8747,2.8736,2.8738,2.8735,2.8748,2.8699,2.8694,2.869,2.8675,2.8669,2.8744,2.8745,2.8745,2.8745,0,2.8615,2.8613,2.8601,2.8616,2.8619,2.8609,2.8636,2.8635,2.8653,2.8669,2.866,2.8674,2.868,2.8677,2.8694,2.8666,2.8674,2.8694,2.8722,2.8679,2.8666,2.866,2.874,2.8741,2.8742,2.8743,0,0,2.8532,2.8564,2.8559,2.8567,2.8588,2.8586,2.8578,2.8585,2.8584,2.8593,2.8587,2.8586,2.8605,2.8609,2.8628,2.8618,2.8581,2.864,2.8641,2.8629,2.8551,2.8537,2.8529,2.8596,2.8595,2.8594,2.8551,0,2.8485,2.8474,2.8501,2.8483,2.8482,2.8516,2.8509,2.8521,2.8535,2.8536,2.8552,2.8551,2.8576,2.8579,2.8571,2.8587,2.8566,2.8591,2.859,2.859,2.8586,2.8522,2.8506,2.8465,2.8545,2.8544,2.8544,0,2.8429,2.8437,2.842,2.8443,2.8443,2.8437,2.8446,2.8446,2.8459,2.8471,2.8476,2.8499,2.8492,2.8519,2.851,2.8526,2.8527,2.8535,2.8534,2.8535,2.8564,2.8522,2.8452,2.8446,2.8536,2.8536,2.8537,0,2.837,2.8377,2.8368,2.8374,2.84,2.8395,2.8405,2.842,2.8423,2.843,2.8432,2.8438,2.8441,2.8445,2.8468,2.8485,2.8456,2.8485,2.8466,2.8465,2.8458,2.8458,2.8388,2.8458,2.8458,2.8458,2.8458,0,2.8316,2.8304,2.8343,2.8337,2.8325,2.8355,2.8342,2.8356,2.8369,2.8367,2.8396,2.8393,2.8423,2.8423,2.8441,2.8431,2.8432,2.8441,2.8446,2.8439,2.8438,2.844,2.8444,2.8456,2.8457,2.8457,2.8457,0,2.8249,2.8274,2.8267,2.8293,2.8299,2.8289,2.8311,2.8307,2.8324,2.832,2.8321,2.8347,2.8349,2.8373,2.8378,2.8391,2.8374,2.8384,2.837,2.8373,2.8353,2.8355,2.8282,2.8274,2.8348,2.8347,2.8347,0,2.8212,2.8205,2.8231,2.8232,2.8241,2.8242,2.8246,2.8275,2.8278,2.8293,2.8287,2.8291,2.8296,2.8297,2.8316,2.8321,2.8332,2.8306,2.8332,2.8326,2.8332,2.8333,2.8333,2.83,2.8299,2.8299,2.8298,0,2.8146,2.8159,2.8164,2.8173,2.8177,2.8186,2.8196,2.8195,2.8227,2.8228,2.8231,2.8235,2.8242,2.8246,2.8254,2.8264,2.8286,2.8289,2.8286,2.8278,2.8271,2.8276,2.8355,2.8291,2.8292,2.8292,2.8293,2.8293,2.8094,2.8089,2.8107,2.8111,2.8123,2.8132,2.813,2.8147,2.8151,2.816,2.8176,2.8177,2.8191,2.8206,2.8214,2.8214,2.8227,2.8221,2.822,2.8218,2.8214,2.8271,2.8216,2.8216,2.8216,2.8216,2.8216,0,2.8029,2.8043,2.8047,2.8061,2.8065,2.8087,2.81,2.8101,2.8102,2.8114,2.8119,2.8123,2.8127,2.8147,2.8153,2.815,2.816,2.815,2.8151,2.8153,2.8202,2.8205,2.8142,2.8142,2.8142,2.8142,2.8142,2.8142,2.7996,2.799,2.8005,2.8005,2.8018,2.802,2.8026,2.8034,2.8045,2.8048,2.8052,2.8066,2.8081,2.8089,2.8094,2.81,2.8101,2.8088,2.8097,2.8142,2.815,2.8156,2.816,2.8088,2.8088,2.8049,2.8049,2.8048]}]]